ALANSN-2 Weather Reports


time (UTC)temp
F
wind
direction
speed
knots
gust
knots
rain 1hr
in
rain 24hr
in
rain mn
in
humidity
%
barometer
mb
20260507220002 46 315 7.0 9.6 0.00 0.00 0.00 58 1016.7
20260507215501 46 291 3.5 4.3 0.00 0.00 0.00 58 1016.5
20260507215002 46 286 6.1 9.6 0.00 0.00 0.00 57 1016.5
20260507214501 46 313 4.3 6.1 0.00 0.00 0.00 57 1016.7
20260507214002 46 260 7.8 9.6 0.00 0.00 0.00 56 1016.6
20260507213501 46 274 7.8 8.7 0.00 0.00 0.00 54 1016.5
20260507213002 46 283 9.6 10.4 0.00 0.00 0.00 56 1016.4
20260507212502 46 298 3.5 4.3 0.00 0.00 0.00 56 1016.4
20260507212001 47 287 4.3 6.1 0.00 0.00 0.00 54 1016.4
20260507211001 47 298 5.2 7.8 0.00 0.00 0.00 53 1016.5
20260507210502 46 327 3.5 5.2 0.00 0.00 0.00 54 1016.4
20260507210002 48 290 7.0 8.7 0.00 0.00 0.00 53 1016.6
20260507205502 48 286 8.7 10.4 0.00 0.00 0.00 54 1016.7
20260507203502 46 293 8.7 9.6 0.00 0.00 0.00 56 1016.4
20260507203002 47 288 7.8 8.7 0.00 0.00 0.00 58 1016.6
20260507202002 46 281 7.8 9.6 0.00 0.00 0.00 57 1016.5
20260507201502 46 270 9.6 11.3 0.00 0.00 0.00 57 1016.7
20260507201002 47 268 7.0 8.7 0.00 0.00 0.00 58 1016.6
20260507200501 47 267 7.8 11.3 0.00 0.00 0.00 58 1016.6
20260507200002 47 297 4.3 7.8 0.00 0.00 0.00 57 1016.6
20260507195501 46 303 7.8 9.6 0.00 0.00 0.00 57 1016.6
20260507195002 46 308 3.5 5.2 0.00 0.00 0.00 59 1016.6
20260507194501 47 344 4.3 5.2 0.00 0.00 0.00 59 1016.7
20260507194002 47 251 4.3 7.8 0.00 0.00 0.00 58 1016.8
20260507193502 46 335 3.5 4.3 0.00 0.00 0.00 59 1017.0
20260507193002 46 287 13.0 13.9 0.00 0.00 0.00 60 1017.1
20260507192002 46 325 3.5 5.2 0.00 0.00 0.00 59 1017.0
20260507191502 46 270 9.6 10.4 0.00 0.00 0.00 61 1017.1
20260507191001 46 270 9.6 11.3 0.00 0.00 0.00 59 1017.2
20260507185502 45 255 9.6 12.2 0.00 0.00 0.00 62 1017.3
20260507184502 45 299 8.7 9.6 0.00 0.00 0.00 61 1017.1
20260507183502 45 279 9.6 10.4 0.00 0.00 0.00 61 1017.4
20260507183001 46 290 5.2 7.8 0.00 0.00 0.00 61 1017.1
20260507182002 45 276 6.1 7.8 0.00 0.00 0.00 62 1017.3
20260507181502 46 277 14.8 15.6 0.00 0.00 0.00 59 1017.3
20260507180002 45 252 11.3 12.2 0.00 0.00 0.00 65 1017.6
20260507175501 44 283 7.8 9.6 0.00 0.00 0.00 63 1017.6
20260507174501 45 293 8.7 10.4 0.00 0.00 0.00 64 1017.6
20260507174002 44 291 7.0 7.8 0.00 0.00 0.00 66 1017.6
20260507173501 44 302 10.4 12.2 0.00 0.00 0.00 67 1017.7
20260507172501 45 281 5.2 6.1 0.00 0.00 0.00 64 1018.2
20260507171502 44 297 5.2 9.6 0.00 0.00 0.00 63 1018.2
20260507171002 45 349 5.2 7.8 0.00 0.00 0.00 66 1018.2
20260507170502 44 343 4.3 7.8 0.00 0.00 0.00 64 1018.3
20260507170001 44 316 10.4 12.2 0.00 0.00 0.00 63 1018.6
20260507165502 44 299 4.3 6.1 0.00 0.00 0.00 67 1018.4
20260507163502 44 322 8.7 11.3 0.00 0.00 0.00 67 1018.5
20260507161501 44 310 4.3 4.3 0.00 0.00 0.00 67 1018.6
20260507161002 44 258 7.0 7.8 0.00 0.00 0.00 69 1018.8
20260507155502 44 244 6.1 8.7 0.00 0.00 0.00 69 1018.9
20260507154502 44 322 6.1 8.7 0.00 0.00 0.00 68 1018.8
20260507154001 44 287 7.8 11.3 0.00 0.00 0.00 70 1018.9
20260507153002 43 304 7.0 8.7 0.00 0.00 0.00 71 1019.1
20260507152002 43 283 5.2 6.1 0.00 0.00 0.00 72 1019.2
20260507151502 43 289 7.8 8.7 0.00 0.00 0.00 71 1019.0
20260507151002 43 245 8.7 10.4 0.00 0.00 0.00 72 1018.9
20260507150501 43 240 7.8 8.7 0.00 0.00 0.00 72 1019.2
20260507150003 42 265 7.0 7.8 0.00 0.00 0.00 73 1019.2
20260507145502 42 269 7.0 7.8 0.00 0.00 0.00 72 1019.4
20260507145002 43 288 7.0 7.8 0.00 0.00 0.00 72 1019.4
20260507144502 42 256 7.0 7.8 0.00 0.00 0.00 72 1019.4
20260507144002 42 296 2.6 4.3 0.00 0.00 0.00 73 1019.3
20260507143502 42 296 7.0 7.8 0.00 0.00 0.00 73 1019.4
20260507143001 42 275 6.1 6.1 0.00 0.00 0.00 73 1019.4
20260507142502 42 274 2.6 4.3 0.00 0.00 0.00 75 1019.5
20260507142002 41 252 5.2 5.2 0.00 0.00 0.00 76 1019.4
20260507141002 41 257 3.5 5.2 0.00 0.00 0.00 77 1019.6
20260507140502 41 275 3.5 4.3 0.00 0.00 0.00 74 1019.6
20260507140002 41 271 3.5 4.3 0.00 0.00 0.00 76 1019.7
20260507135502 41 238 5.2 5.2 0.00 0.00 0.00 80 1019.6
20260507134001 40 286 4.3 4.3 0.00 0.00 0.00 80 1019.7
20260507133001 40 283 3.5 3.5 0.00 0.00 0.00 80 1019.7
20260507131002 39 278 1.7 2.6 0.00 0.00 0.00 81 1019.8
20260507124501 38 321 1.7 1.7 0.00 0.00 0.00 86 1020.0
20260507122501 37 172 0.0 0.0 0.00 0.00 0.00 89 1020.0
20260507122002 36 191 0.0 0.0 0.00 0.00 0.00 89 1019.9
20260507121502 36 179 0.0 0.0 0.00 0.00 0.00 89 1020.0
20260507121001 35 194 0.0 0.0 0.00 0.00 0.00 90 1020.1
20260507120001 35 152 0.9 1.7 0.00 0.00 0.00 89 1020.0
20260507114502 34 149 0.0 0.0 0.00 0.00 0.00 91 1019.9
20260507114001 33 153 0.0 0.0 0.00 0.00 0.00 92 1020.1
20260507113502 32 154 0.0 0.0 0.00 0.00 0.00 93 1020.0
20260507112002 30 150 0.0 0.0 0.00 0.00 0.00 97 1020.2
20260507111002 30 143 0.9 1.7 0.00 0.00 0.00 98 1020.1
20260507110502 29 150 0.0 0.0 0.00 0.00 0.00 98 1020.2
20260507110002 29 138 0.0 0.0 0.00 0.00 0.00 98 1020.2
20260507105002 28 91 0.0 0.0 0.00 0.00 0.00 98 1020.0
20260507103502 28 114 0.0 0.0 0.00 0.00 0.00 97 1019.8
20260507103001 28 108 0.0 0.0 0.00 0.00 0.00 97 1020.1
20260507102502 28 140 0.0 0.0 0.00 0.00 0.00 97 1020.0
20260507102001 28 91 0.9 1.7 0.00 0.00 0.00 97 1019.9
20260507101502 28 137 0.9 1.7 0.00 0.00 0.00 97 1019.9
20260507101002 28 85 0.9 1.7 0.00 0.00 0.00 97 1020.1
20260507100501 28 92 0.9 1.7 0.00 0.00 0.00 97 1019.9
20260507100002 28 114 0.9 1.7 0.00 0.00 0.00 97 1019.8
20260507093502 29 145 0.0 0.0 0.00 0.00 0.00 96 1019.8
20260507093001 29 144 0.0 0.0 0.00 0.00 0.00 96 1020.1
20260507092001 29 144 0.0 0.0 0.00 0.00 0.00 96 1020.1
20260507090501 29 110 0.9 1.7 0.00 0.00 0.00 97 1020.2
20260507085501 29 142 0.0 0.0 0.00 0.00 0.00 97 1020.5
20260507085002 29 122 0.0 0.0 0.00 0.00 0.00 97 1020.2
20260507084002 28 144 0.0 0.0 0.00 0.00 0.00 97 1020.2
20260507083001 28 150 0.0 0.0 0.00 0.00 0.00 97 1020.0
20260507082502 28 121 0.0 0.0 0.00 0.00 0.00 96 1020.2
20260507082001 28 114 0.0 0.0 0.00 0.00 0.00 96 1020.1
20260507081502 28 143 0.0 0.0 0.00 0.00 0.00 96 1020.2
20260507081001 28 111 0.0 0.0 0.00 0.00 0.00 96 1020.2
20260507080002 28 115 0.0 0.0 0.00 0.00 0.00 96 1020.1
20260507075501 28 110 0.0 0.0 0.00 0.00 0.00 95 1020.4
20260507074501 28 134 0.0 0.0 0.00 0.00 0.00 95 1020.3
20260507073501 28 127 0.0 0.0 0.00 0.00 0.00 95 1020.2
20260507073002 29 126 0.0 0.0 0.00 0.00 0.00 95 1020.3
20260507071501 29 127 0.0 0.0 0.00 0.00 0.00 95 1020.5
20260507071002 29 113 0.0 0.0 0.00 0.00 0.00 95 1020.3
20260507070502 29 119 0.9 1.7 0.00 0.00 0.00 95 1020.3
20260507065502 29 111 0.9 1.7 0.00 0.00 0.00 95 1020.6
20260507065002 29 68 1.7 1.7 0.00 0.00 0.00 94 1020.5
20260507064502 29 135 0.0 0.0 0.00 0.00 0.00 94 1020.6
20260507063002 29 133 0.9 1.7 0.00 0.00 0.00 94 1020.6
20260507062502 29 138 0.0 0.0 0.00 0.00 0.00 94 1020.4
20260507062001 29 113 0.9 1.7 0.00 0.00 0.00 94 1020.4
20260507061502 29 125 0.0 0.0 0.00 0.00 0.00 93 1020.2
20260507060502 30 49 1.7 2.6 0.00 0.00 0.00 93 1020.3
20260507060001 30 62 1.7 2.6 0.00 0.00 0.00 93 1020.5
20260507055502 30 59 1.7 1.7 0.00 0.00 0.00 93 1020.4
20260507055001 30 55 1.7 1.7 0.00 0.00 0.00 92 1020.5
20260507054502 30 60 1.7 1.7 0.00 0.00 0.00 92 1020.7
20260507053502 30 51 1.7 1.7 0.00 0.00 0.00 91 1020.3
20260507053001 31 47 1.7 1.7 0.00 0.00 0.00 91 1020.4
20260507051502 32 53 1.7 2.6 0.00 0.00 0.00 89 1020.6
20260507051001 32 50 1.7 1.7 0.00 0.00 0.00 89 1020.4
20260507050001 33 100 0.0 0.0 0.00 0.00 0.00 87 1020.6
20260507044001 34 101 0.9 1.7 0.00 0.00 0.00 85 1020.5
20260507043502 34 56 1.7 1.7 0.00 0.00 0.00 87 1020.3
20260507042002 34 77 0.0 0.0 0.00 0.00 0.00 87 1020.5
20260507040501 36 37 0.0 0.0 0.00 0.00 0.00 85 1020.4
20260507040002 36 21 0.0 0.0 0.00 0.00 0.00 83 1020.1
20260507035501 37 244 0.0 0.0 0.00 0.00 0.00 82 1020.4
20260507034501 38 251 0.9 1.7 0.00 0.00 0.00 78 1020.5
20260507033501 39 243 0.0 0.0 0.00 0.00 0.00 74 1020.3
20260507033002 39 328 1.7 1.7 0.00 0.00 0.00 75 1020.4
20260507032502 39 260 0.0 0.0 0.00 0.00 0.00 75 1020.5
20260507032002 40 271 0.9 1.7 0.00 0.00 0.00 74 1020.4
20260507031502 40 282 4.3 5.2 0.00 0.00 0.00 73 1020.2
20260507031002 40 264 4.3 4.3 0.00 0.00 0.00 72 1020.3
20260507030502 40 271 4.3 4.3 0.00 0.00 0.00 73 1020.1
20260507025501 40 286 0.9 1.7 0.00 0.00 0.00 74 1020.2
20260507024501 40 274 1.7 1.7 0.00 0.00 0.00 74 1020.2
20260507024002 40 291 2.6 3.5 0.00 0.00 0.00 74 1020.0
20260507023501 40 240 0.0 0.0 0.00 0.00 0.00 74 1020.2
20260507023002 40 291 0.9 1.7 0.00 0.00 0.00 73 1020.2
20260507022502 40 273 2.6 3.5 0.00 0.00 0.00 73 1020.1
20260507022002 41 270 2.6 3.5 0.00 0.00 0.00 73 1020.0
20260507021502 40 250 3.5 4.3 0.00 0.00 0.00 71 1020.0
20260507021002 40 258 0.9 1.7 0.00 0.00 0.00 72 1020.0
20260507020502 40 243 0.0 0.0 0.00 0.00 0.00 71 1020.1
20260507020002 40 277 1.7 1.7 0.00 0.00 0.00 72 1020.0
20260507015501 40 313 0.9 1.7 0.00 0.00 0.00 71 1020.1
20260507015002 40 308 1.7 2.6 0.00 0.00 0.00 72 1020.0
20260507013001 41 267 3.5 4.3 0.00 0.00 0.00 73 1019.9
20260507011502 41 307 1.7 2.6 0.00 0.00 0.00 70 1019.6
20260507011002 41 344 1.7 2.6 0.00 0.00 0.00 69 1019.5
20260507005502 41 294 3.5 4.3 0.00 0.00 0.00 67 1019.4
20260507005001 41 324 2.6 3.5 0.00 0.00 0.00 67 1019.3
20260507004502 41 252 3.5 4.3 0.00 0.00 0.00 70 1019.6
20260507003001 41 255 5.2 5.2 0.00 0.00 0.00 66 1019.3
20260507002502 41 290 6.1 7.8 0.00 0.00 0.00 68 1019.4
20260507002001 41 284 4.3 4.3 0.00 0.00 0.00 67 1019.3
20260507001001 41 286 5.2 6.1 0.00 0.00 0.00 65 1019.4
20260507000501 41 278 6.1 6.1 0.00 0.00 0.00 65 1019.4
20260506235501 41 298 4.3 6.1 0.00 0.00 0.00 62 1019.2
20260506235002 42 324 5.2 6.1 0.00 0.00 0.00 63 1019.1
20260506234502 41 296 6.1 8.7 0.00 0.00 0.00 61 1019.1
20260506234002 41 303 1.7 2.6 0.00 0.00 0.00 63 1019.3
20260506233501 41 288 4.3 5.2 0.00 0.00 0.00 63 1019.1
20260506233002 41 275 5.2 5.2 0.00 0.00 0.00 62 1019.3
20260506232501 42 282 4.3 5.2 0.00 0.00 0.00 62 1019.0
20260506231501 42 274 5.2 6.1 0.00 0.00 0.00 66 1019.1
20260506231002 42 266 6.1 7.8 0.00 0.00 0.00 65 1019.1
20260506225502 42 264 4.3 5.2 0.00 0.00 0.00 63 1019.2
20260506225002 42 306 2.6 3.5 0.00 0.00 0.00 62 1019.1
20260506223502 42 351 4.3 4.3 0.00 0.00 0.00 60 1019.2
20260506223002 42 317 4.3 4.3 0.00 0.00 0.00 61 1019.1